Regional Weather Roundup
Issued by NWS

Home | Current Version | Previous Version | Graphics & Text | Print | Product List | Glossary On
Versions: 1 2 3 4 5 6 7 8 9 10 11 12 13 14 15 16 17 18 19 20 21 22 23 24 25 26 27 28 29 30 31 32 33 34 35 36 37 38 39 40 41 42 43 44 45 46 47 48 49 50
000
ASUS43 KOAX 240410
RWRNE

WEATHER ROUNDUP FOR NEBRASKA
NATIONAL WEATHER SERVICE OMAHA NE
1000 PM CST THU NOV 23 2017

NOTES: SATELLITE DATA IS BEING USED TO AUGMENT CLOUD COVER ABOVE
       12000 FEET.
       "FAIR" INDICATES FEW OR NO CLOUDS BELOW 12,000 FEET WITH NO
       SIGNIFICANT WEATHER AND/OR OBSTRUCTIONS TO VISIBILITY.


NEZ001>004-019>022-054>056-240500-
NEBRASKA PANHANDLE

CITY           SKY/WX    TMP DP  RH WIND       PRES   REMARKS
SCOTTSBLUFF    CLOUDY    54  35  48 W5        29.82F
ALLIANCE       CLEAR     41  35  79 W8        29.79F
CHADRON        CLOUDY    44  35  70 W8        29.74F
GORDON         FAIR      54  36  50 W10       29.73S
KIMBALL        CLOUDY    50  31  47 W9        29.90S
SIDNEY         CLOUDY    52  31  44 W13       29.87F
$$

NEZ057>060-069>072-079>082-240500-
SOUTHWEST NEBRASKA

CITY           SKY/WX    TMP DP  RH WIND       PRES   REMARKS
NORTH PLATTE   CLEAR     42  35  76 NW3       29.78F
IMPERIAL       CLEAR     47  32  56 W8        29.83F
LEXINGTON      CLOUDY    59  40  47 S12       29.76F
MCCOOK         CLEAR     56  39  53 SW16      29.81F
OGALLALA       CLOUDY    42  34  72 W10       29.81F
$$

NEZ005>010-023>029-035>040-094-240500-
NORTH CENTRAL NEBRASKA

CITY           SKY/WX    TMP DP  RH WIND       PRES   REMARKS
VALENTINE      CLOUDY    49  37  63 VRB3      29.68F
AINSWORTH      MOCLDY    55  40  56 SW13      29.69F
BROKEN BOW     CLOUDY    43  37  79 SW3       29.74F
O`NEILL        PTCLDY    52  43  71 SW8       29.70F
ORD            CLOUDY    54  41  61 S3        29.72F
THEDFORD       PTCLDY    51  39  64 W6        29.74F
$$

NEZ041-046>049-061>064-073>077-083>087-240500-
SOUTH CENTRAL NEBRASKA

CITY           SKY/WX    TMP DP  RH WIND       PRES   REMARKS
GRAND ISLAND   CLOUDY    56  42  59 SW15      29.76F
AURORA         PTCLDY    54  39  58 S10       29.77F
HASTINGS       MOCLDY    56  40  55 SW10      29.78F
HEBRON         PTCLDY    58  40  49 S14       29.80F
HOLDREGE       CLOUDY    53  41  63 SW10      29.79S
KEARNEY        CLOUDY    53  40  61 SW12      29.77F
YORK           CLOUDY    52  39  62 S8        29.78F
$$

NEZ011>018-030>034-042>045-240500-
NORTHEAST NEBRASKA

CITY           SKY/WX    TMP DP  RH WIND       PRES   REMARKS
NORFOLK        PTCLDY    55  41  59 S17       29.71F
ALBION         MOCLDY    54  41  60 S5        29.73F
BLAIR          CLOUDY    55  40  59 S14       29.76F
COLUMBUS       PTCLDY    57  41  55 SW13      29.75F
FREMONT        CLOUDY    58  40  52 S10G17    29.75F
TEKAMAH        PTCLDY    51  38  60 S12       29.74F
WAYNE          CLOUDY    57  38  48 SW10      29.70F
$$

NEZ050>053-065>068-078-088>093-240500-
SOUTHEAST NEBRASKA

CITY           SKY/WX    TMP DP  RH WIND       PRES   REMARKS
LINCOLN        MOCLDY    56  40  55 S7        29.80F
OMAHA EPPLEY   CLOUDY    49  38  65 SE9       29.78F
BEATRICE       PTCLDY    57  40  53 S10       29.80F
FALLS CITY     CLOUDY    55  38  52 S12       29.82F
NEBRASKA CITY  CLOUDY    55  40  57 S12       29.81F
PLATTSMOUTH    CLOUDY    53  40  61 S12       29.79F
$$

NEZ044-045-051>053-067-240500-
OMAHA AREA

CITY           SKY/WX    TMP DP  RH WIND       PRES   REMARKS
OMAHA EPPLEY   CLOUDY    49  38  65 SE9       29.78F
BLAIR          CLOUDY    55  40  59 S14       29.76F
FREMONT        CLOUDY    58  40  52 S10G17    29.75F
MILLARD        MOCLDY    52  40  65 CALM      29.78F
OFFUTT AFB     PTCLDY    48  37  65 E5        29.78F
PLATTSMOUTH    CLOUDY    53  40  61 S12       29.79F
WAHOO          FAIR      51  39  63 S7        29.77F
$$




USA.gov is the U.S. government's official web portal to all federal, state and local government web resources and services.